[[{"header":{"parameterUnit":"m.s-1","parameterCategory":2,"la1":30.2991,"la2":30.254,"lo1":-89.0895,"lo2":-89.0444,"dy":0.0017,"dx":0.0017,"nx":28,"ny":28,"refTime":"2026-01-11T09:00:00:Z","depth":"0","parameterNumber":2,"parameterNumberName":"U-component_of_CURRENTS"},"data":[0,0,0,0,0,0,0,0,0,0,0,0,0,0,0,0,0,0,0,0,0,0,0,0,0,0,0,0,0,0,0,0,0,0,0,0,0,0,0,0,0,0,0,0,0,0,0,0,0,0,0,0,0,0,0,0,0,0,0.1905,0.1904,0,0.1839,0.1838,0.1838,0.1819,0.1819,0.1819,0.1819,0.186,0.1861,0.1862,0,0,0,0,0,0,0,0,0,0,0,0,0,0.1894,0.1896,0.1905,0.1904,0.1902,0.1839,0.1838,0.1838,0.1819,0.1819,0.1819,0.1819,0.186,0.1861,0.1862,0,0,0,0,0,0,0,0,0,0,0,0,0,0.1875,0.1896,0.1905,0.1882,0.1879,0.1839,0.1838,0.1838,0.1819,0.1819,0.1819,0.1819,0.1859,0.1861,0.1862,0.1875,0,0,0.1868,0.1868,0,0,0,0,0,0,0,0,0.1877,0.1876,0.1887,0.1883,0.188,0.1833,0.1849,0.1854,0.1819,0.1847,0.1819,0.1819,0.1858,0.186,0.1852,0.1877,0.1878,0.1868,0.1869,0.187,0.187,0,0,0,0,0,0,0,0.1878,0.1878,0.1883,0.1885,0.1881,0.1833,0.1832,0.1849,0.1859,0.1844,0.1842,0.1827,0.1858,0.1851,0.1854,0.1879,0.1868,0.1869,0.187,0.1871,0.1938,0.1939,0,0,0,0,0,0,0.1884,0.1881,0.1885,0.1881,0.1873,0.1833,0.1832,0.1852,0.1857,0.1855,0.1827,0.1826,0.1848,0.1852,0.1855,0.1893,0.187,0.1871,0.1872,0.1938,0.1939,0.1939,0,0,0,0,0,0,0.1885,0.1886,0.1888,0.1873,0.1869,0.1834,0.1856,0.185,0.1841,0.1841,0.1843,0.1822,0.1848,0.1853,0.1888,0.1894,0.1872,0.1874,0.1937,0.1938,0.1939,0.1954,0,0,0,0,0,0,0.1885,0.1888,0.1906,0.1875,0.187,0.1891,0.1855,0.1849,0.183,0.1828,0.1838,0.1841,0.1848,0.1886,0.189,0.1895,0.1875,0.1936,0.1937,0.1939,0.1953,0.1956,0.1958,0,0,0,0,0,0.1886,0.192,0.1909,0.1908,0.1898,0.1892,0.1887,0.1862,0.183,0.1848,0.1848,0.1841,0.1897,0.1889,0.1893,0.1899,0.1935,0.1937,0.1938,0.1951,0.1955,0.1958,0,0,0,0,0,0,0.1946,0.1919,0.1907,0.1938,0.1924,0.1888,0.1894,0.1861,0.1869,0.1871,0.1859,0.1865,0.1895,0.1899,0.1889,0.1923,0.1911,0.1914,0.192,0.1923,0.1926,0.1927,0.1876,0,0,0,0,0,0.1961,0.197,0.1945,0.1971,0.1966,0.1924,0.1914,0.1899,0.1892,0.1893,0.1888,0.1892,0.1905,0.1916,0.1934,0.1958,0.1965,0.1962,0.1965,0.1967,0.1972,0.1989,0.1993,0.1945,0.1945,0.1945,0,0,0.1984,0.1975,0.1977,0.198,0.1965,0.1956,0.1922,0.1922,0.1912,0.1901,0.1901,0.1907,0.1915,0.1942,0.1954,0.1947,0.1987,0.197,0.1971,0.1975,0.1991,0.1996,0.2,0.1946,0.1946,0.1946,0,0,0.2013,0.2037,0.2034,0.2029,0.201,0.1994,0.1992,0.1962,0.1955,0.196,0.1943,0.1955,0.1969,0.1972,0.1975,0.2004,0.2002,0.2005,0.2019,0.2035,0.2039,0.2043,0.2064,0.2069,0.2004,0.2004,0.2004,0,0.201,0.2037,0.2037,0.2032,0.2024,0.2008,0.2001,0.1997,0.1979,0.1982,0.1974,0.1978,0.1981,0.1998,0.2004,0.2009,0.2022,0.2004,0.2038,0.2042,0.2045,0.2066,0.2072,0.2005,0.2005,0.2005,0.2005,0,0.2033,0.2047,0.2056,0.2039,0.2045,0.205,0.2039,0.2048,0.2031,0.2015,0.2033,0.2036,0.2038,0.2034,0.2027,0.2047,0.2051,0.2041,0.2028,0.2051,0.2072,0.2077,0.2007,0.2006,0.2006,0.2006,0,0,0.2003,0.2045,0.2038,0.2045,0.2049,0.2054,0.2069,0.2071,0.2077,0.2073,0.2076,0.2081,0.2077,0.2079,0.2069,0.2074,0.2103,0.2067,0.2068,0.2085,0.2149,0.2195,0.2206,0.21,0.2101,0.2102,0.2156,0,0.1991,0.1992,0.2018,0.203,0.204,0.2056,0.2069,0.2084,0.2096,0.2111,0.2112,0.2121,0.2095,0.2101,0.2104,0.211,0.2118,0.209,0.2127,0.2128,0.2164,0.2214,0.2296,0.2355,0.2161,0.2162,0.2163,0,0.1993,0.1995,0.1999,0.2041,0.2044,0.2049,0.2087,0.2098,0.2133,0.2148,0.2166,0.2169,0.2183,0.2153,0.2177,0.2163,0.2158,0.2154,0.2156,0.2198,0.2185,0.23,0.2372,0.2351,0.2171,0.2171,0.217,0,0.1984,0.1991,0.1998,0.2005,0.2038,0.205,0.2065,0.2105,0.2138,0.2174,0.2211,0.222,0.2244,0.2236,0.224,0.2211,0.2272,0.223,0.2265,0.2268,0.2346,0.2354,0.24,0.2242,0.2242,0.2242,0.2242,0,0.1973,0.1979,0.1993,0.1998,0.202,0.2044,0.2082,0.2108,0.216,0.2209,0.2226,0.2276,0.2268,0.2303,0.2275,0.2313,0.2306,0.2287,0.2293,0.2354,0.2363,0.2352,0.2305,0.2244,0.2244,0.2243,0.2243,0,0.1973,0.1975,0.2001,0.202,0.2026,0.2045,0.2099,0.2132,0.2182,0.2252,0.227,0.234,0.2394,0.2396,0.2405,0.2384,0.2369,0.2397,0.2476,0.2491,0.2488,0.2438,0.2394,0.2316,0.2442,0.2444,0.2445,0,0.1968,0.1983,0.2016,0.203,0.2035,0.2063,0.2089,0.2138,0.2179,0.2292,0.2326,0.2415,0.2501,0.2563,0.2555,0.256,0.2442,0.2596,0.2545,0.2523,0.2471,0.2347,0.2273,0.2654,0.2657,0.266,0.2661,0,0.1968,0.1988,0.2002,0.2035,0.2057,0.2091,0.2124,0.2163,0.2229,0.2318,0.2436,0.2525,0.2635,0.2712,0.2729,0.2719,0.2553,0.2644,0.2607,0.264,0.2522,0.244,0.2574,0.2683,0.2681,0.2679,0.2678,0.2677,0.1963,0.198,0.2004,0.2039,0.2066,0.2094,0.2101,0.2169,0.2254,0.233,0.247,0.2585,0.2803,0.2873,0.2831,0.2843,0.2692,0.2807,0.275,0.2625,0.255,0.2734,0.2852,0.2851,0.285,0.2849,0.2848,0,0.194,0.1963,0.2002,0.2024,0.2039,0.2063,0.2104,0.2086,0.2165,0.2287,0.2413,0.2686,0.2865,0.2939,0.303,0.2956,0.2829,0.2908,0.2766,0.268,0.2876,0.289,0.3039,0.3039,0.3039,0.3039,0.3039,0.3039,0.1918,0.1939,0.1969,0.1982,0.1994,0.1937,0.1943,0.1964,0.2015,0.2138,0.2264,0.2418,0.2758,0.3074,0.3094,0.3045,0.2789,0.2812,0.2637,0.2832,0.2817,0.2803,0.2807,0.2936,0.2936,0.244,0.2436,0.2433]},{"header":{"parameterUnit":"m.s-1","parameterCategory":2,"la1":30.2991,"la2":30.254,"lo1":-89.0895,"lo2":-89.0444,"dy":0.0017,"dx":0.0017,"nx":28,"ny":28,"refTime":"2026-01-11T09:00:00:Z","depth":"0","parameterNumber":3,"parameterNumberName":"V-component_of_CURRENTS"},"data":[0,0,0,0,0,0,0,0,0,0,0,0,0,0,0,0,0,0,0,0,0,0,0,0,0,0,0,0,0,0,0,0,0,0,0,0,0,0,0,0,0,0,0,0,0,0,0,0,0,0,0,0,0,0,0,0,0,0,-0.0322,-0.0321,0,-0.0268,-0.0268,-0.0268,-0.0269,-0.0269,-0.0269,-0.0269,-0.0372,-0.0374,-0.0377,0,0,0,0,0,0,0,0,0,0,0,0,0,-0.0305,-0.0306,-0.0322,-0.0321,-0.032,-0.0268,-0.0268,-0.0268,-0.0269,-0.0269,-0.0269,-0.0269,-0.0371,-0.0374,-0.0377,0,0,0,0,0,0,0,0,0,0,0,0,0,-0.0294,-0.0307,-0.0322,-0.0309,-0.0307,-0.0268,-0.0268,-0.0267,-0.0268,-0.0269,-0.0269,-0.0269,-0.037,-0.0374,-0.0378,-0.0396,0,0,-0.0389,-0.0391,0,0,0,0,0,0,0,0,-0.0294,-0.0295,-0.0312,-0.031,-0.0308,-0.027,-0.0299,-0.0316,-0.0268,-0.029,-0.0269,-0.0269,-0.0348,-0.0354,-0.035,-0.0401,-0.0406,-0.039,-0.0392,-0.0394,-0.0395,0,0,0,0,0,0,0,-0.0295,-0.0297,-0.0307,-0.0311,-0.0308,-0.0264,-0.0265,-0.0301,-0.0326,-0.0288,-0.0286,-0.027,-0.0349,-0.0346,-0.0352,-0.0407,-0.039,-0.0393,-0.0395,-0.0397,-0.0468,-0.0468,0,0,0,0,0,0,-0.0296,-0.0298,-0.0308,-0.0304,-0.0295,-0.0264,-0.0265,-0.0287,-0.0322,-0.0324,-0.027,-0.0271,-0.0339,-0.0348,-0.0356,-0.0367,-0.0394,-0.0397,-0.04,-0.0469,-0.0468,-0.0468,0,0,0,0,0,0,-0.0297,-0.0299,-0.031,-0.0292,-0.029,-0.0265,-0.0288,-0.0285,-0.0279,-0.0306,-0.0313,-0.0266,-0.0339,-0.0351,-0.0394,-0.0372,-0.0399,-0.0403,-0.0469,-0.0469,-0.0468,-0.0399,0,0,0,0,0,0,-0.0297,-0.0301,-0.0317,-0.0294,-0.0291,-0.0308,-0.0287,-0.0284,-0.0266,-0.0266,-0.0304,-0.0314,-0.0341,-0.0388,-0.0397,-0.0378,-0.0406,-0.047,-0.0469,-0.0468,-0.0402,-0.0397,-0.0392,0,0,0,0,0,-0.0298,-0.0327,-0.032,-0.0319,-0.0316,-0.0308,-0.0305,-0.0288,-0.0265,-0.028,-0.0294,-0.0312,-0.0389,-0.0391,-0.0403,-0.0384,-0.047,-0.0469,-0.0468,-0.0405,-0.0398,-0.0392,0,0,0,0,0,0,-0.0344,-0.0329,-0.032,-0.0349,-0.0334,-0.0307,-0.0307,-0.0284,-0.03,-0.0302,-0.0321,-0.0333,-0.0357,-0.0386,-0.0387,-0.0401,-0.0427,-0.0428,-0.0375,-0.0369,-0.0363,-0.0354,-0.0409,0,0,0,0,0,-0.0356,-0.0367,-0.0348,-0.0369,-0.0362,-0.0329,-0.0319,-0.0309,-0.031,-0.0315,-0.0329,-0.0347,-0.036,-0.0379,-0.0408,-0.0427,-0.0452,-0.0418,-0.0413,-0.0408,-0.0408,-0.0424,-0.042,-0.0465,-0.0465,-0.0465,0,0,-0.0364,-0.0368,-0.0366,-0.0376,-0.036,-0.0335,-0.0327,-0.0321,-0.0294,-0.0328,-0.0315,-0.0338,-0.0363,-0.0377,-0.0389,-0.04,-0.0409,-0.0407,-0.0403,-0.0405,-0.0423,-0.0418,-0.0414,-0.0464,-0.0464,-0.0464,0,0,-0.0371,-0.0406,-0.0395,-0.0387,-0.0368,-0.0354,-0.0348,-0.0323,-0.0316,-0.0313,-0.0314,-0.0327,-0.0355,-0.0358,-0.0362,-0.0349,-0.0382,-0.0353,-0.0319,-0.0334,-0.033,-0.0327,-0.0352,-0.0352,-0.0348,-0.0348,-0.0348,0,-0.035,-0.0373,-0.0391,-0.0376,-0.0352,-0.0354,-0.032,-0.0316,-0.0305,-0.0295,-0.0312,-0.0313,-0.0339,-0.0324,-0.0314,-0.0335,-0.0356,-0.0337,-0.0326,-0.0323,-0.0321,-0.0348,-0.0349,-0.0345,-0.0345,-0.0345,-0.0346,0,-0.0347,-0.0347,-0.0348,-0.0321,-0.0313,-0.0299,-0.0282,-0.0283,-0.0271,-0.0252,-0.025,-0.0282,-0.0281,-0.028,-0.0294,-0.0279,-0.0303,-0.0317,-0.0338,-0.0313,-0.0343,-0.0345,-0.034,-0.0341,-0.0342,-0.0343,0,0,-0.0312,-0.0321,-0.0317,-0.029,-0.0281,-0.0267,-0.0248,-0.0221,-0.0192,-0.0207,-0.0169,-0.0187,-0.0204,-0.0211,-0.0227,-0.0236,-0.0239,-0.0267,-0.0269,-0.0286,-0.028,-0.0324,-0.0331,-0.0249,-0.0249,-0.0249,-0.0306,0,-0.0273,-0.0229,-0.0253,-0.02,-0.0171,-0.0181,-0.0158,-0.0147,-0.0145,-0.0128,-0.0153,-0.0142,-0.0176,-0.0175,-0.0189,-0.0225,-0.0241,-0.0223,-0.0309,-0.0311,-0.0348,-0.0334,-0.0379,-0.0436,-0.0309,-0.0309,-0.0309,0,-0.0259,-0.0229,-0.0164,-0.0133,-0.012,-0.0095,-0.0064,-0.0044,-0.0042,-0.0045,-0.0052,-0.0076,-0.0089,-0.0126,-0.0183,-0.0171,-0.0222,-0.0256,-0.026,-0.0327,-0.0359,-0.0442,-0.0445,-0.0621,-0.0313,-0.0313,-0.0312,0,-0.0229,-0.0176,-0.012,-0.0104,-0.0065,-0.0045,-0.0027,-0.0017,0.0008,0.0005,0.0017,-0.0017,-0.0029,-0.0094,-0.0176,-0.0179,-0.0247,-0.0263,-0.0353,-0.0357,-0.0427,-0.0437,-0.0606,-0.0309,-0.0308,-0.0308,-0.0308,0,-0.0192,-0.0151,-0.0101,-0.0069,-0.0009,-0.0003,0.005,0.0052,0.0071,0.0105,0.0062,0.0073,-0.0021,-0.0074,-0.0158,-0.0265,-0.024,-0.0349,-0.0373,-0.0405,-0.0412,-0.0595,-0.0689,-0.031,-0.031,-0.0309,-0.0309,0,-0.0176,-0.0141,-0.0081,-0.0019,0.0002,0.0041,0.0097,0.0132,0.0139,0.0178,0.0178,0.0142,0.0065,-0.0039,-0.0147,-0.0239,-0.0452,-0.0383,-0.0421,-0.0449,-0.0702,-0.0788,-0.0945,-0.1068,-0.0494,-0.0496,-0.0497,0,-0.0159,-0.0125,-0.0045,-0.0007,0.0023,0.0085,0.0125,0.0157,0.0197,0.0222,0.0243,0.0186,0.0153,-0.003,-0.0211,-0.0379,-0.0516,-0.0532,-0.0548,-0.0729,-0.0843,-0.0865,-0.096,-0.0615,-0.0617,-0.0619,-0.062,0,-0.0127,-0.0106,-0.0052,0.0025,0.008,0.0144,0.0204,0.0255,0.0291,0.0335,0.0363,0.0341,0.0146,-0.0041,-0.0286,-0.0419,-0.0693,-0.0573,-0.075,-0.0948,-0.0994,-0.112,-0.0572,-0.0635,-0.0634,-0.0633,-0.0632,-0.0631,-0.0108,-0.0074,-0.0011,0.0056,0.0116,0.0185,0.0277,0.0347,0.043,0.0534,0.0465,0.0477,0.0138,-0.0203,-0.0417,-0.085,-0.0816,-0.0971,-0.1059,-0.1061,-0.1196,-0.0686,-0.0781,-0.078,-0.0779,-0.0779,-0.0779,0,-0.0075,-0.0042,0.0017,0.0095,0.0152,0.019,0.0323,0.0448,0.0586,0.0629,0.0675,0.0441,0.0055,-0.035,-0.0919,-0.1244,-0.137,-0.1445,-0.1508,-0.1583,-0.1127,-0.115,-0.1341,-0.1341,-0.1341,-0.134,-0.134,-0.134,-0.0058,-0.0001,0.0022,0.0108,0.0166,0.0341,0.0445,0.0619,0.0722,0.0791,0.0746,0.0648,0.0149,-0.0763,-0.148,-0.1662,-0.1939,-0.1981,-0.2113,-0.1824,-0.1786,-0.175,-0.1794,-0.2117,-0.2118,-0.2537,-0.2541,-0.2545]}],[{"header":{"parameterUnit":"m.s-1","parameterCategory":2,"la1":30.2991,"la2":30.254,"lo1":-89.0895,"lo2":-89.0444,"dy":0.0017,"dx":0.0017,"nx":28,"ny":28,"refTime":"2026-01-11T09:00:00:Z","depth":"2","parameterNumber":2,"parameterNumberName":"U-component_of_CURRENTS"},"data":[0,0,0,0,0,0,0,0,0,0,0,0,0,0,0,0,0,0,0,0,0,0,0,0,0,0,0,0,0,0,0,0,0,0,0,0,0,0,0,0,0,0,0,0,0,0,0,0,0,0,0,0,0,0,0,0,0,0,0.1887,0.1885,0,0.1816,0.1816,0.1815,0.1799,0.1799,0.1799,0.1799,0.1845,0.1846,0.1847,0,0,0,0,0,0,0,0,0,0,0,0,0,0.1877,0.1878,0.1887,0.1885,0.1884,0.1816,0.1816,0.1815,0.1799,0.1799,0.1799,0.1799,0.1844,0.1846,0.1847,0,0,0,0,0,0,0,0,0,0,0,0,0,0.1857,0.1879,0.1887,0.1864,0.186,0.1816,0.1816,0.1815,0.1799,0.1799,0.1799,0.1799,0.1844,0.1846,0.1848,0.186,0,0,0.1853,0.1854,0,0,0,0,0,0,0,0,0.1858,0.1858,0.1868,0.1865,0.1861,0.1811,0.1828,0.1834,0.1799,0.1828,0.1799,0.1799,0.1841,0.1843,0.1836,0.1862,0.1864,0.1853,0.1855,0.1855,0.1856,0,0,0,0,0,0,0,0.186,0.186,0.1864,0.1867,0.1862,0.1811,0.181,0.1829,0.1842,0.1826,0.1823,0.1806,0.1841,0.1834,0.1837,0.1865,0.1853,0.1855,0.1856,0.1857,0.1926,0.1927,0,0,0,0,0,0,0.1864,0.1862,0.1867,0.1862,0.1853,0.1811,0.181,0.1832,0.1839,0.1838,0.1806,0.1806,0.1831,0.1835,0.1839,0.1878,0.1855,0.1857,0.1858,0.1926,0.1926,0.1927,0,0,0,0,0,0,0.1865,0.1867,0.1869,0.1853,0.1849,0.1812,0.1836,0.183,0.1822,0.1822,0.1824,0.1803,0.1831,0.1836,0.1874,0.1879,0.1858,0.186,0.1925,0.1926,0.1927,0.1941,0,0,0,0,0,0,0.1866,0.1869,0.1889,0.1855,0.185,0.1872,0.1835,0.1829,0.1809,0.1808,0.182,0.1824,0.1832,0.1871,0.1876,0.1881,0.1861,0.1924,0.1925,0.1926,0.194,0.1942,0.1945,0,0,0,0,0,0.1867,0.1902,0.1891,0.189,0.188,0.1873,0.1868,0.1842,0.1809,0.183,0.183,0.1823,0.1882,0.1874,0.1879,0.1885,0.1923,0.1925,0.1926,0.1938,0.1942,0.1945,0,0,0,0,0,0,0.193,0.1902,0.189,0.1922,0.1907,0.1869,0.1875,0.1841,0.1851,0.1853,0.1842,0.1848,0.188,0.1884,0.1875,0.1909,0.1898,0.1901,0.1905,0.1909,0.1911,0.1913,0.1863,0,0,0,0,0,0.1946,0.1956,0.1929,0.1956,0.1951,0.1908,0.1896,0.1881,0.1874,0.1876,0.1871,0.1876,0.1889,0.1902,0.192,0.1945,0.1952,0.1949,0.1952,0.1954,0.1959,0.1976,0.198,0.1933,0.1933,0.1933,0,0,0.197,0.196,0.1963,0.1966,0.195,0.194,0.1905,0.1904,0.1894,0.1883,0.1884,0.1891,0.1899,0.1927,0.194,0.1932,0.1973,0.1956,0.1958,0.1962,0.1978,0.1982,0.1986,0.1934,0.1933,0.1933,0,0,0.1999,0.2025,0.2022,0.2016,0.1995,0.1979,0.1977,0.1945,0.1939,0.1944,0.1926,0.1939,0.1953,0.1957,0.1959,0.1988,0.1987,0.1989,0.2004,0.202,0.2024,0.2027,0.2048,0.2053,0.1989,0.1989,0.1989,0,0.1997,0.2024,0.2024,0.2018,0.2009,0.1993,0.1985,0.1982,0.1963,0.1966,0.1958,0.1962,0.1965,0.1982,0.1988,0.1993,0.2006,0.1989,0.2023,0.2026,0.2029,0.205,0.2056,0.199,0.199,0.199,0.1989,0,0.2018,0.2033,0.2041,0.2023,0.203,0.2034,0.2022,0.2032,0.2015,0.1998,0.2017,0.2019,0.2022,0.2017,0.2011,0.2031,0.2034,0.2024,0.2013,0.2035,0.2055,0.2061,0.1991,0.1991,0.199,0.199,0,0,0.199,0.2029,0.2023,0.203,0.2033,0.2038,0.2052,0.2054,0.206,0.2056,0.2059,0.2063,0.206,0.2062,0.2052,0.2058,0.2086,0.2051,0.2052,0.2069,0.2131,0.2177,0.2187,0.2083,0.2084,0.2085,0.2138,0,0.1977,0.1976,0.2002,0.2013,0.2022,0.2039,0.2051,0.2066,0.2079,0.2093,0.2095,0.2104,0.2078,0.2084,0.2087,0.2093,0.2101,0.2073,0.211,0.2111,0.2146,0.2195,0.1915,0.1944,0.2144,0.2145,0.2145,0,0.1977,0.1979,0.1981,0.2023,0.2025,0.203,0.2069,0.208,0.2115,0.213,0.2148,0.2151,0.2166,0.2136,0.2159,0.2146,0.2141,0.2137,0.2139,0.2181,0.2168,0.1953,0.1946,0.2154,0.2154,0.2153,0.2152,0,0.1968,0.1974,0.198,0.1987,0.202,0.2032,0.2047,0.2087,0.212,0.2156,0.2193,0.2202,0.2227,0.2218,0.2222,0.2193,0.2254,0.2212,0.2247,0.225,0.202,0.2002,0.2225,0.2225,0.2225,0.2224,0.2224,0,0.1958,0.1963,0.1975,0.198,0.2002,0.2026,0.2064,0.209,0.2143,0.2191,0.2209,0.2258,0.225,0.2285,0.2258,0.2295,0.2288,0.2269,0.2274,0.202,0.2003,0.2187,0.2181,0.2226,0.2226,0.2226,0.2225,0,0.1958,0.1959,0.1985,0.2002,0.2009,0.2027,0.2081,0.2114,0.2164,0.2234,0.2252,0.2322,0.2376,0.2378,0.2386,0.2365,0.2371,0.2377,0.2095,0.2069,0.2341,0.2336,0.2418,0.2421,0.2422,0.2424,0.2425,0,0.1954,0.1968,0.1999,0.2013,0.2019,0.2046,0.2071,0.212,0.2162,0.2274,0.2308,0.2397,0.2458,0.2519,0.2416,0.2392,0.2455,0.2199,0.2099,0.2368,0.2364,0.2356,0.2349,0.1782,0.1778,0.1775,0.1772,0,0.1955,0.1974,0.1988,0.2019,0.2041,0.2074,0.2107,0.2146,0.2211,0.2275,0.2393,0.2458,0.248,0.2333,0.231,0.2259,0.2181,0.2141,0.2467,0.1815,0.1783,0.1776,0.1785,0.1742,0.1745,0.1747,0.1749,0.175,0.1952,0.1968,0.1991,0.2025,0.2051,0.2079,0.2085,0.2071,0.2121,0.2132,0.2295,0.2268,0.2221,0.2046,0.1975,0.1912,0.2064,0.1959,0.1961,0.1968,0.1924,0.1901,0.1873,0.1877,0.188,0.1883,0.1885,0,0.1892,0.1952,0.199,0.2011,0.1977,0.2049,0.2089,0.2034,0.1982,0.2001,0.201,0.1788,0.1664,0.1683,0.1493,0.1509,0.1402,0.1507,0.1302,0.1333,0.136,0.1278,0.1059,0.1058,0.1056,0.1054,0,0,0.1861,0.1858,0.1886,0.1871,0.1922,0.1875,0.1882,0.1802,0.1764,0.1649,0.157,0.1566,0.1643,0.1298,0.1235,0.1146,0.1251,0.1113,0.1765,0.1557,0.1582,0.1603,0.1512,0,0,0,0,0]},{"header":{"parameterUnit":"m.s-1","parameterCategory":2,"la1":30.2991,"la2":30.254,"lo1":-89.0895,"lo2":-89.0444,"dy":0.0017,"dx":0.0017,"nx":28,"ny":28,"refTime":"2026-01-11T09:00:00:Z","depth":"2","parameterNumber":3,"parameterNumberName":"V-component_of_CURRENTS"},"data":[0,0,0,0,0,0,0,0,0,0,0,0,0,0,0,0,0,0,0,0,0,0,0,0,0,0,0,0,0,0,0,0,0,0,0,0,0,0,0,0,0,0,0,0,0,0,0,0,0,0,0,0,0,0,0,0,0,0,-0.0269,-0.0268,0,-0.0209,-0.0209,-0.0209,-0.0213,-0.0213,-0.0214,-0.0214,-0.0323,-0.0325,-0.0328,0,0,0,0,0,0,0,0,0,0,0,0,0,-0.0253,-0.0254,-0.027,-0.0268,-0.0267,-0.0209,-0.0209,-0.0209,-0.0213,-0.0213,-0.0214,-0.0214,-0.0322,-0.0325,-0.0328,0,0,0,0,0,0,0,0,0,0,0,0,0,-0.024,-0.0255,-0.027,-0.0257,-0.0254,-0.0209,-0.0209,-0.0209,-0.0213,-0.0213,-0.0214,-0.0214,-0.0321,-0.0325,-0.0329,-0.0347,0,0,-0.0341,-0.0343,0,0,0,0,0,0,0,0,-0.0241,-0.0242,-0.026,-0.0257,-0.0255,-0.0213,-0.0242,-0.0261,-0.0213,-0.0236,-0.0214,-0.0214,-0.0297,-0.0303,-0.0298,-0.0352,-0.0356,-0.0341,-0.0344,-0.0345,-0.0347,0,0,0,0,0,0,0,-0.0242,-0.0244,-0.0253,-0.0258,-0.0255,-0.0206,-0.0207,-0.0245,-0.0274,-0.0234,-0.0233,-0.0214,-0.0297,-0.0294,-0.0301,-0.0358,-0.0341,-0.0345,-0.0347,-0.0349,-0.0422,-0.0422,0,0,0,0,0,0,-0.0242,-0.0245,-0.0255,-0.0251,-0.024,-0.0207,-0.0208,-0.0232,-0.027,-0.0272,-0.0214,-0.0215,-0.0287,-0.0297,-0.0305,-0.0319,-0.0345,-0.0349,-0.0351,-0.0423,-0.0422,-0.0422,0,0,0,0,0,0,-0.0243,-0.0245,-0.0257,-0.0238,-0.0235,-0.0207,-0.0233,-0.023,-0.0225,-0.0251,-0.0259,-0.0211,-0.0288,-0.03,-0.0345,-0.0324,-0.0351,-0.0355,-0.0423,-0.0423,-0.0422,-0.0353,0,0,0,0,0,0,-0.0244,-0.0247,-0.0266,-0.024,-0.0236,-0.0255,-0.0232,-0.0229,-0.0209,-0.021,-0.0251,-0.0261,-0.0289,-0.0339,-0.0349,-0.033,-0.0358,-0.0424,-0.0423,-0.0422,-0.0356,-0.035,-0.0345,0,0,0,0,0,-0.0244,-0.0276,-0.0268,-0.0268,-0.0264,-0.0255,-0.0251,-0.0233,-0.0209,-0.0226,-0.024,-0.026,-0.034,-0.0342,-0.0354,-0.0336,-0.0424,-0.0423,-0.0422,-0.0358,-0.0351,-0.0345,0,0,0,0,0,0,-0.0296,-0.0277,-0.0269,-0.03,-0.0284,-0.0253,-0.0254,-0.0229,-0.0247,-0.0249,-0.0269,-0.0281,-0.0307,-0.0337,-0.0339,-0.0353,-0.0379,-0.0381,-0.0327,-0.032,-0.0315,-0.0306,-0.0361,0,0,0,0,0,-0.0309,-0.032,-0.0299,-0.0322,-0.0314,-0.0279,-0.0267,-0.0257,-0.0257,-0.0263,-0.0278,-0.0296,-0.031,-0.0329,-0.0359,-0.038,-0.0405,-0.0371,-0.0366,-0.0361,-0.0361,-0.0377,-0.0373,-0.0418,-0.0418,-0.0418,0,0,-0.0318,-0.0321,-0.0318,-0.033,-0.0312,-0.0285,-0.0277,-0.0269,-0.0241,-0.0276,-0.0264,-0.0288,-0.0313,-0.0327,-0.034,-0.0352,-0.0362,-0.036,-0.0355,-0.0359,-0.0376,-0.0371,-0.0368,-0.0418,-0.0418,-0.0418,0,0,-0.0325,-0.0363,-0.0351,-0.0342,-0.0321,-0.0306,-0.03,-0.0273,-0.0267,-0.0264,-0.0263,-0.0277,-0.0307,-0.0309,-0.0313,-0.03,-0.0333,-0.0304,-0.027,-0.0285,-0.0281,-0.0278,-0.0304,-0.0304,-0.0299,-0.0299,-0.0299,0,-0.0306,-0.0329,-0.0347,-0.033,-0.0305,-0.0307,-0.0271,-0.0267,-0.0255,-0.0246,-0.0263,-0.0263,-0.029,-0.0274,-0.0264,-0.0286,-0.0307,-0.0289,-0.0277,-0.0274,-0.0273,-0.03,-0.03,-0.0296,-0.0296,-0.0296,-0.0297,0,-0.0301,-0.0302,-0.0302,-0.0274,-0.0266,-0.0252,-0.0233,-0.0235,-0.0222,-0.0203,-0.0202,-0.0233,-0.0233,-0.0231,-0.0245,-0.023,-0.0254,-0.0267,-0.029,-0.0264,-0.0294,-0.0296,-0.0291,-0.0292,-0.0293,-0.0294,0,0,-0.0268,-0.0275,-0.0271,-0.0243,-0.0233,-0.0219,-0.02,-0.0172,-0.0142,-0.0158,-0.012,-0.0138,-0.0156,-0.0162,-0.0177,-0.0187,-0.019,-0.0218,-0.022,-0.0238,-0.0232,-0.0276,-0.0283,-0.02,-0.02,-0.02,-0.0258,0,-0.0228,-0.0182,-0.0205,-0.0152,-0.0122,-0.0132,-0.0108,-0.0097,-0.0095,-0.0079,-0.0104,-0.0093,-0.0127,-0.0126,-0.014,-0.0176,-0.0192,-0.0174,-0.026,-0.0263,-0.0301,-0.0286,-0.0187,-0.0232,-0.026,-0.0261,-0.0261,0,-0.0212,-0.0181,-0.0115,-0.0084,-0.007,-0.0045,-0.0015,0.0005,0.0007,0.0004,-0.0004,-0.0028,-0.0041,-0.0078,-0.0135,-0.0123,-0.0174,-0.0208,-0.0211,-0.028,-0.0311,-0.0264,-0.0235,-0.0265,-0.0265,-0.0264,-0.0264,0,-0.0184,-0.0129,-0.0072,-0.0056,-0.0015,0.0004,0.0021,0.0032,0.0057,0.0053,0.0065,0.0031,0.0018,-0.0047,-0.0128,-0.0132,-0.02,-0.0215,-0.0306,-0.031,-0.0257,-0.0257,-0.0261,-0.0261,-0.0261,-0.0261,-0.0261,0,-0.0147,-0.0105,-0.0053,-0.0021,0.0039,0.0045,0.0098,0.0099,0.0119,0.0153,0.0109,0.0121,0.0026,-0.0027,-0.011,-0.0218,-0.0193,-0.0302,-0.0326,-0.0232,-0.0229,-0.0285,-0.0287,-0.0263,-0.0262,-0.0262,-0.0262,0,-0.0131,-0.0095,-0.0034,0.0028,0.005,0.0088,0.0144,0.018,0.0186,0.0225,0.0225,0.0189,0.0112,0.0007,-0.01,-0.0193,-0.0291,-0.0337,-0.0231,-0.0242,-0.0397,-0.0395,-0.0445,-0.0447,-0.0448,-0.045,-0.0451,0,-0.0115,-0.008,0.0001,0.004,0.0069,0.0131,0.0172,0.0204,0.0244,0.0269,0.029,0.0232,0.0211,0.0028,-0.0105,-0.0259,-0.0322,-0.0337,-0.0333,-0.0397,-0.0415,-0.041,-0.0406,-0.023,-0.023,-0.0229,-0.0229,0,-0.0084,-0.0062,-0.0007,0.007,0.0125,0.0191,0.0251,0.0302,0.0339,0.0399,0.0426,0.0415,0.026,0.0152,-0.0074,-0.018,-0.0307,-0.0335,-0.0407,-0.0214,-0.0204,-0.0219,-0.022,-0.0224,-0.0224,-0.0224,-0.0225,-0.0225,-0.0067,-0.0032,0.0032,0.01,0.016,0.0231,0.0322,0.0448,0.0554,0.0682,0.0588,0.0628,0.0433,0.0221,-0.0002,-0.0248,-0.0255,-0.0348,-0.0345,-0.0344,-0.0323,-0.0318,-0.0356,-0.0357,-0.0358,-0.0359,-0.036,0,0.0016,-0.0002,0.0058,0.0137,0.0254,0.0233,0.0367,0.0519,0.0744,0.08,0.0897,0.0767,0.0617,0.0332,0.0021,-0.0202,-0.018,-0.0322,-0.0225,-0.0227,-0.023,-0.0201,-0.0202,-0.0203,-0.0204,-0.0205,0,0,0.0047,0.0133,0.0158,0.0271,0.0278,0.0429,0.0531,0.0768,0.0899,0.1062,0.1089,0.1079,0.07,0.0507,0.0219,-0.001,-0.0082,-0.0056,-0.0147,0.0001,0.0,-0.0199,-0.0152,0,0,0,0,0]}],[{"header":{"parameterUnit":"m.s-1","parameterCategory":2,"la1":30.2991,"la2":30.254,"lo1":-89.0895,"lo2":-89.0444,"dy":0.0017,"dx":0.0017,"nx":28,"ny":28,"refTime":"2026-01-11T09:00:00:Z","depth":"4","parameterNumber":2,"parameterNumberName":"U-component_of_CURRENTS"},"data":[0,0,0,0,0,0,0,0,0,0,0,0,0,0,0,0,0,0,0,0,0,0,0,0,0,0,0,0,0,0,0,0,0,0,0,0,0,0,0,0,0,0,0,0,0,0,0,0,0,0,0,0,0,0,0,0,0,0,0.0944,0.0946,0,0.1007,0.1007,0.1007,0.1042,0.1042,0.1043,0.1044,0.1029,0.1028,0.1027,0,0,0,0,0,0,0,0,0,0,0,0,0,0.0888,0.0888,0.0944,0.0946,0.0947,0.1007,0.1007,0.1007,0.1042,0.1042,0.1043,0.1044,0.1029,0.1028,0.1027,0,0,0,0,0,0,0,0,0,0,0,0,0,0.0921,0.0888,0.0944,0.0976,0.098,0.1007,0.1007,0.1007,0.1041,0.1042,0.1044,0.1045,0.103,0.1028,0.1026,0.0995,0,0,0.1022,0.1021,0,0,0,0,0,0,0,0,0.0919,0.0922,0.097,0.0974,0.0979,0.1024,0.0983,0.1002,0.1041,0.1011,0.1044,0.1045,0.1024,0.1023,0.1023,0.0994,0.0994,0.1021,0.102,0.102,0.1019,0,0,0,0,0,0,0,0.0917,0.092,0.0962,0.0972,0.0977,0.1,0.1005,0.0986,0.1004,0.1014,0.1018,0.1036,0.1025,0.1025,0.1023,0.0993,0.1021,0.102,0.1019,0.1018,0.1036,0.1038,0,0,0,0,0,0,0.092,0.0917,0.096,0.0965,0.0959,0.1001,0.1006,0.1003,0.1006,0.101,0.1035,0.1037,0.1027,0.1025,0.1023,0.1073,0.102,0.1018,0.1017,0.1035,0.1037,0.1038,0,0,0,0,0,0,0.0918,0.0922,0.0958,0.0949,0.0957,0.1001,0.0997,0.1003,0.1032,0.1024,0.1025,0.1061,0.1028,0.1025,0.1031,0.1069,0.1018,0.1016,0.1033,0.1036,0.1038,0.1116,0,0,0,0,0,0,0.0915,0.092,0.0926,0.0949,0.0957,0.0984,0.0997,0.1004,0.1043,0.1047,0.1046,0.1045,0.1028,0.1034,0.103,0.1066,0.1015,0.1032,0.1034,0.1037,0.1112,0.1121,0.1129,0,0,0,0,0,0.0913,0.091,0.0925,0.0931,0.096,0.0985,0.0991,0.1022,0.1044,0.1052,0.106,0.1046,0.1049,0.1033,0.1028,0.1065,0.103,0.1034,0.1037,0.1108,0.1119,0.1129,0,0,0,0,0,0,0.0878,0.0915,0.0931,0.0937,0.0968,0.0994,0.1011,0.1036,0.105,0.1059,0.1051,0.1049,0.1076,0.1054,0.1037,0.1079,0.1042,0.1044,0.1098,0.1108,0.1117,0.1116,0.1013,0,0,0,0,0,0.0877,0.0891,0.0925,0.0933,0.0949,0.0986,0.1006,0.1029,0.1046,0.1056,0.1063,0.107,0.1079,0.1081,0.1079,0.1088,0.1077,0.1113,0.1121,0.1128,0.1126,0.1145,0.1155,0.1049,0.1049,0.1049,0,0,0.0873,0.0891,0.0903,0.093,0.0955,0.0987,0.0999,0.1033,0.1069,0.1048,0.1092,0.1096,0.1089,0.1112,0.1122,0.1101,0.1156,0.1133,0.1139,0.1132,0.115,0.116,0.1169,0.1051,0.1051,0.105,0,0,0.0872,0.0881,0.0902,0.093,0.0977,0.0996,0.1015,0.1057,0.1083,0.1117,0.1126,0.1152,0.1157,0.1168,0.1172,0.122,0.1202,0.123,0.1268,0.1288,0.1296,0.1304,0.1314,0.1322,0.1232,0.1232,0.1232,0,0.0889,0.0894,0.0912,0.0942,0.0976,0.1007,0.1045,0.1071,0.1114,0.1137,0.1141,0.1188,0.1186,0.1224,0.125,0.1241,0.1243,0.1231,0.1299,0.1306,0.1312,0.1321,0.1328,0.1236,0.1235,0.1235,0.1235,0,0.0893,0.0921,0.0934,0.0985,0.1016,0.1049,0.1094,0.1128,0.1166,0.1195,0.1248,0.1253,0.1281,0.1296,0.1287,0.1342,0.1328,0.131,0.1273,0.1328,0.1333,0.134,0.1242,0.124,0.1239,0.1238,0,0,0.0887,0.0939,0.0947,0.0982,0.1045,0.1068,0.1127,0.1181,0.1224,0.1265,0.1321,0.1354,0.1366,0.1371,0.1376,0.1395,0.1451,0.1377,0.1376,0.1387,0.1495,0.1405,0.1402,0.145,0.1451,0.1453,0.1485,0,0.0903,0.0959,0.0981,0.1045,0.1079,0.1129,0.1178,0.1231,0.1274,0.1328,0.1355,0.1403,0.1393,0.142,0.144,0.1451,0.147,0.1444,0.144,0.1439,0.1352,0.1407,0.1457,0.1489,0.149,0.1491,0.1492,0,0.0895,0.0936,0.1003,0.1078,0.1099,0.1145,0.1225,0.1274,0.1346,0.1383,0.1434,0.1456,0.1508,0.1487,0.1529,0.1516,0.1513,0.1511,0.1512,0.14,0.136,0.142,0.1503,0.1502,0.1501,0.1501,0.15,0,0.0859,0.0944,0.0997,0.1028,0.112,0.1164,0.1214,0.1291,0.134,0.1424,0.1469,0.152,0.1561,0.157,0.1578,0.1563,0.1609,0.1583,0.1496,0.149,0.1525,0.1517,0.1606,0.1606,0.1606,0.1605,0.1605,0,0.085,0.0894,0.0989,0.102,0.1082,0.1154,0.1226,0.1282,0.1375,0.1421,0.1497,0.1536,0.1587,0.1618,0.1605,0.1573,0.1633,0.1509,0.1495,0.1559,0.1554,0.153,0.1521,0.1607,0.1606,0.1606,0.1606,0,0.0802,0.0868,0.0927,0.1032,0.1067,0.1109,0.1227,0.1268,0.1374,0.1441,0.1475,0.1572,0.1606,0.1639,0.1659,0.1602,0.1582,0.1553,0.1631,0.1619,0.1441,0.1436,0.1454,0.1452,0.1449,0.1447,0.1445,0,0.0786,0.0814,0.0916,0.0944,0.0997,0.1078,0.1123,0.1246,0.1289,0.1435,0.1448,0.1544,0.1584,0.154,0.1586,0.1569,0.1542,0.1524,0.1469,0.1443,0.1427,0.1426,0.1424,0.1442,0.1441,0.144,0.144,0,0.0749,0.0787,0.0832,0.0885,0.0938,0.099,0.1069,0.1103,0.123,0.1347,0.1377,0.1407,0.145,0.1464,0.1477,0.1455,0.1531,0.1498,0.1502,0.145,0.1427,0.1414,0.1415,0.1431,0.1432,0.1433,0.1434,0,0.0714,0.0721,0.0771,0.081,0.0862,0.0875,0.0939,0.0991,0.1059,0.1223,0.1224,0.1323,0.1417,0.1406,0.141,0.1397,0.1363,0.1298,0.1311,0.1322,0.1266,0.1216,0.1148,0,0,0,0,0,0.0671,0.0663,0.0691,0.0718,0.076,0.0791,0.0882,0.095,0.1086,0.1062,0.1144,0.1171,0.1204,0.1262,0.1219,0.1358,0.1372,0.1304,0.1303,0.1385,0.1394,0.1342,0,0,0,0,0,0,0.0636,0.0654,0.0658,0.0628,0.0631,0.0666,0.072,0.0812,0.0813,0.0954,0.0974,0.1083,0.113,0.1201,0.1188,0.1206,0.1177,0.1374,0.1371,0.1379,0.1388,0.1396,0.1345,0,0,0,0,0]},{"header":{"parameterUnit":"m.s-1","parameterCategory":2,"la1":30.2991,"la2":30.254,"lo1":-89.0895,"lo2":-89.0444,"dy":0.0017,"dx":0.0017,"nx":28,"ny":28,"refTime":"2026-01-11T09:00:00:Z","depth":"4","parameterNumber":3,"parameterNumberName":"V-component_of_CURRENTS"},"data":[0,0,0,0,0,0,0,0,0,0,0,0,0,0,0,0,0,0,0,0,0,0,0,0,0,0,0,0,0,0,0,0,0,0,0,0,0,0,0,0,0,0,0,0,0,0,0,0,0,0,0,0,0,0,0,0,0,0,0.0295,0.0295,0,0.0249,0.0249,0.0248,0.0225,0.0225,0.0225,0.0225,0.0275,0.0276,0.0278,0,0,0,0,0,0,0,0,0,0,0,0,0,0.0294,0.0295,0.0295,0.0295,0.0294,0.0249,0.0249,0.0248,0.0225,0.0225,0.0225,0.0225,0.0275,0.0276,0.0278,0,0,0,0,0,0,0,0,0,0,0,0,0,0.0277,0.0295,0.0296,0.0276,0.0274,0.0249,0.0249,0.0248,0.0225,0.0225,0.0225,0.0224,0.0274,0.0276,0.0278,0.0295,0,0,0.0285,0.0286,0,0,0,0,0,0,0,0,0.0278,0.0277,0.028,0.0278,0.0275,0.0242,0.0267,0.0268,0.0225,0.0245,0.0225,0.0224,0.0272,0.0275,0.0266,0.0297,0.0299,0.0285,0.0286,0.0287,0.0288,0,0,0,0,0,0,0,0.0279,0.0279,0.0278,0.0279,0.0276,0.0246,0.0244,0.0266,0.0262,0.0243,0.0241,0.0234,0.0272,0.0264,0.0268,0.03,0.0285,0.0287,0.0288,0.0289,0.0344,0.0344,0,0,0,0,0,0,0.0287,0.028,0.0279,0.0277,0.0275,0.0247,0.0245,0.0253,0.026,0.026,0.0234,0.0233,0.026,0.0265,0.0269,0.0292,0.0287,0.0289,0.029,0.0344,0.0344,0.0344,0,0,0,0,0,0,0.0288,0.0288,0.0281,0.0275,0.0272,0.0247,0.0257,0.0253,0.0245,0.0252,0.0254,0.0231,0.0261,0.0266,0.0302,0.0294,0.029,0.0292,0.0344,0.0344,0.0344,0.0337,0,0,0,0,0,0,0.0288,0.0289,0.0303,0.0277,0.0273,0.0285,0.0257,0.0252,0.0241,0.0239,0.0251,0.0255,0.0261,0.0299,0.0304,0.0297,0.0294,0.0343,0.0344,0.0344,0.0337,0.0337,0.0337,0,0,0,0,0,0.0289,0.0321,0.0304,0.0304,0.0292,0.0286,0.0283,0.0263,0.0241,0.0252,0.0257,0.0254,0.0304,0.0302,0.0308,0.0301,0.0343,0.0344,0.0344,0.0337,0.0337,0.0337,0,0,0,0,0,0,0.0344,0.0321,0.0302,0.033,0.0312,0.0282,0.0293,0.0265,0.0272,0.0275,0.0271,0.0277,0.0298,0.0308,0.0305,0.0317,0.0317,0.0319,0.031,0.031,0.031,0.0308,0.0296,0,0,0,0,0,0.0357,0.0368,0.0338,0.0361,0.0354,0.0317,0.0311,0.0295,0.0292,0.0292,0.0291,0.0295,0.0303,0.0315,0.0327,0.0348,0.0335,0.0343,0.0343,0.0343,0.0345,0.0319,0.0317,0.0345,0.0345,0.0345,0,0,0.0379,0.0373,0.0376,0.0371,0.0355,0.0344,0.0315,0.0316,0.0304,0.0302,0.0301,0.0302,0.0309,0.0323,0.0332,0.0333,0.0327,0.0343,0.0343,0.0346,0.0319,0.0317,0.0314,0.0346,0.0346,0.0346,0,0,0.0419,0.0429,0.0433,0.0421,0.0401,0.0383,0.0381,0.035,0.0339,0.0342,0.0325,0.0323,0.0341,0.0332,0.0332,0.0343,0.0327,0.0343,0.0344,0.0319,0.0316,0.0313,0.0288,0.0283,0.0344,0.0344,0.0344,0,0.0423,0.0448,0.0437,0.0433,0.0425,0.0397,0.0391,0.0379,0.0361,0.0355,0.0351,0.0336,0.034,0.0335,0.0333,0.0341,0.0327,0.0343,0.0318,0.0315,0.0312,0.0286,0.0281,0.0343,0.0343,0.0343,0.0343,0,0.046,0.0469,0.0479,0.0457,0.0453,0.0458,0.0428,0.0423,0.0402,0.0379,0.0371,0.0364,0.0353,0.0344,0.0345,0.0323,0.0319,0.0318,0.0315,0.0309,0.0282,0.0277,0.0343,0.0343,0.0343,0.0343,0,0,0.0475,0.0488,0.049,0.0487,0.0467,0.047,0.0459,0.0442,0.0434,0.041,0.0392,0.038,0.0362,0.036,0.0345,0.032,0.0282,0.0313,0.0312,0.0282,0.0224,0.0223,0.0217,0.0275,0.0274,0.0274,0.021,0,0.0487,0.05,0.0499,0.0508,0.0512,0.0489,0.0483,0.0468,0.0452,0.0436,0.0405,0.0395,0.0372,0.0366,0.0334,0.0301,0.0269,0.0299,0.024,0.0238,0.0233,0.0211,0.0271,0.0206,0.0205,0.0204,0.0203,0,0.0519,0.0524,0.0537,0.054,0.0537,0.0535,0.053,0.0518,0.049,0.0476,0.0447,0.0425,0.0385,0.0367,0.0291,0.0313,0.0268,0.0235,0.0232,0.0231,0.0227,0.0216,0.0193,0.0194,0.0195,0.0196,0.0196,0,0.0561,0.0557,0.0576,0.0574,0.0565,0.0566,0.0555,0.0535,0.0541,0.0501,0.0503,0.0442,0.0423,0.0355,0.0285,0.0288,0.0199,0.0196,0.0147,0.0146,0.017,0.0174,0.0134,0.0135,0.0135,0.0135,0.0135,0,0.0586,0.0605,0.06,0.0612,0.0633,0.0606,0.0627,0.0601,0.0585,0.0601,0.053,0.0527,0.042,0.0361,0.0288,0.0201,0.0198,0.0141,0.0128,0.0168,0.0173,0.0165,0.017,0.0132,0.0133,0.0133,0.0134,0,0.0635,0.0633,0.0664,0.066,0.0662,0.0679,0.0684,0.0703,0.0665,0.068,0.0672,0.0592,0.0505,0.0396,0.0281,0.0216,0.0128,0.0096,0.0144,0.0136,0.0089,0.0094,0.0033,0.0033,0.0032,0.0032,0.0031,0,0.0656,0.0681,0.0712,0.0738,0.0739,0.0759,0.0784,0.0754,0.0772,0.073,0.0744,0.0654,0.0592,0.0421,0.0297,0.0135,0.0116,0.0062,0.0072,0.0084,0.0077,0.0083,0.0089,0.0031,0.003,0.003,0.003,0,0.0695,0.0722,0.0747,0.0806,0.0843,0.0882,0.09,0.0916,0.0887,0.0863,0.0806,0.0698,0.059,0.0435,0.0299,0.019,0.0092,0.0056,0.0056,0.0065,0.008,0.0075,0.0081,0.0028,0.0029,0.0029,0.0029,0,0.0731,0.0766,0.0815,0.0862,0.0923,0.0973,0.0977,0.0977,0.0976,0.0908,0.0895,0.075,0.0657,0.0464,0.035,0.0226,0.0197,0.016,0.0155,0.0155,0.0206,0.0244,0.0227,0,0,0,0,0,0.0748,0.0797,0.0858,0.0913,0.098,0.1011,0.1045,0.104,0.101,0.0984,0.093,0.0825,0.0619,0.0523,0.0401,0.0348,0.0183,0.0201,0.0141,0.0018,0.002,0.0059,0,0,0,0,0,0,0.0764,0.083,0.0865,0.095,0.0997,0.1068,0.1095,0.1077,0.1044,0.099,0.0883,0.0799,0.0603,0.0693,0.0402,0.0361,0.0307,0.0096,0.0093,0.0017,0.0019,0.0021,0.0061,0,0,0,0,0]}]]